Location: Port-Aux-Quilles Astronomical Observatory
(47.9769°N, 69.9642°W)
Time: 21:22:01
(UTC-05:00)

Envisat - Pass Details

Date: 29 October 2019
Orbit: 764 x 766 km, 98.1° (Epoch: 21 November)

Event Time Altitude Azimuth Distance (km) Brightness Sun altitude
Rises 17:56:47 0° 146° (SE) 3,222 6.0 -5.7°
Reaches altitude 10° 17:59:09 10° 140° (SE) 2,300 5.2 -6.0°
Maximum altitude 18:03:58 45° 68° (ENE) 1,035 3.3 -6.8°
Drops below altitude 10° 18:08:48 10° 357° (N) 2,315 5.4 -7.6°
Sets 18:11:11 0° 352° (N) 3,245 6.2 -8.0°
